Grosse Ile, MI

8:35 PM EDT on April 28, 2017 (GMT -0400)
Grosse Ile Municipal

Weather History for KONZ - July, 2014

Change the Weather History Date:

Saturday, July 5, 2014

  Actual Average (KDTW) Record (KDTW)
Temperature  
Mean Temperature 66 °F -  
Max Temperature 78 °F 81 °F 96 °F (1977)
Min Temperature 55 °F 60 °F 47 °F (1972)
Cooling Degree Days 2    
Growing Degree Days 16 (Base 50)    
Moisture  
Dew Point 50 °F    
Average Humidity 54    
Maximum Humidity 88    
Minimum Humidity 32    
Precipitation  
Precipitation 0.00 in - - ()
Sea Level Pressure  
Sea Level Pressure 30.23 in    
Wind  
Wind Speed 3 mph (SW)    
Max Wind Speed 14 mph    
Max Gust Speed -    
Visibility 9 miles    
Events      
Averages and records for this station are not official NWS values.
T = Trace of Precipitation, MM = Missing Value Source: NWS Daily Summary

Daily Weather History Graph

Daily Weather History Graph

Search for Another Location

Airport or City:

Trip Planner

Search our weather history database for the weather conditions in past years. The results will help you decide how hot, cold, wet, or windy it might be!

Date:

Astronomy

Jul. 05, 2014 Rise Set
Actual Time 6:02 AM EDT 9:11 PM EDT
Civil Twilight 5:28 AM EDT 9:45 PM EDT
Nautical Twilight 4:44 AM EDT 10:29 PM EDT
Astronomical Twilight 3:52 AM EDT 11:21 PM EDT
Moon 2:04 PM EDT (7/5) 12:55 AM EDT (7/5)
Length of Visible Light 16h 16m
Length of Day
15h 08m
First Quarter, 52% of the Moon is Illuminated
Jul 5
First Quarter
Jul 12
Full
Jul 18
Last Quarter
Jul 26
New
Aug 3
First Quarter

Hourly Weather History & Observations

Time (EDT) Temp. Dew Point Humidity Pressure Visibility Wind Dir Wind Speed Gust Speed Precip Events Conditions
12:14 AM 60.8 °F 51.8 °F 72% 30.28 in 10.0 mi Calm Calm - N/A   Clear
12:34 AM 62.6 °F 53.6 °F 72% 30.29 in 10.0 mi Calm Calm - N/A   Clear
12:54 AM 60.8 °F 53.6 °F 77% 30.29 in 7.0 mi Calm Calm - N/A   Clear
1:14 AM 60.8 °F 53.6 °F 77% 30.28 in 10.0 mi Calm Calm - N/A   Clear
1:34 AM 60.8 °F 53.6 °F 77% 30.28 in 7.0 mi Calm Calm - N/A   Clear
1:54 AM 60.8 °F 53.6 °F 77% 30.28 in 5.0 mi Calm Calm - N/A   Haze
2:15 AM 59.0 °F 53.6 °F 82% 30.28 in 5.0 mi Calm Calm - N/A   Haze
2:54 AM 57.2 °F 53.6 °F 88% 30.27 in 5.0 mi Calm Calm - N/A   Haze
3:15 AM 57.2 °F 53.6 °F 88% 30.27 in 7.0 mi Calm Calm - N/A   Clear
3:34 AM 59.0 °F 51.8 °F 77% 30.27 in 7.0 mi Calm Calm - N/A   Clear
3:54 AM 57.2 °F 51.8 °F 82% 30.27 in 7.0 mi Calm Calm - N/A   Clear
4:34 AM 57.2 °F 50.0 °F 77% 30.27 in 10.0 mi Calm Calm - N/A   Clear
4:54 AM 57.2 °F 50.0 °F 77% 30.27 in 10.0 mi Calm Calm - N/A   Clear
5:14 AM 57.2 °F 48.2 °F 72% 30.27 in 10.0 mi Calm Calm - N/A   Clear
5:34 AM 55.4 °F 48.2 °F 77% 30.27 in 10.0 mi NW 5.8 mph - N/A   Clear
5:54 AM 57.2 °F 48.2 °F 72% 30.28 in 10.0 mi Calm Calm - N/A   Clear
6:14 AM 57.2 °F 48.2 °F 72% 30.29 in 10.0 mi Calm Calm - N/A   Clear
6:34 AM 57.2 °F 50.0 °F 77% 30.29 in 10.0 mi Calm Calm - N/A   Clear
6:54 AM 57.2 °F 51.8 °F 82% 30.29 in 10.0 mi West 3.5 mph - N/A   Clear
7:14 AM 59.0 °F 51.8 °F 77% 30.29 in 10.0 mi West 4.6 mph - N/A   Clear
7:34 AM 60.8 °F 51.8 °F 72% 30.29 in 10.0 mi West 3.5 mph - N/A   Clear
7:54 AM 62.6 °F 51.8 °F 68% 30.30 in 7.0 mi West 3.5 mph - N/A   Clear
8:14 AM 64.4 °F 51.8 °F 64% 30.30 in 10.0 mi Calm Calm - N/A   Clear
8:35 AM 66.2 °F 50.0 °F 56% 30.30 in 10.0 mi West 4.6 mph - N/A   Clear
8:54 AM 68.0 °F 51.8 °F 56% 30.29 in 10.0 mi West 5.8 mph - N/A   Clear
9:14 AM 69.8 °F 51.8 °F 53% 30.29 in 10.0 mi Calm Calm - N/A   Clear
9:34 AM 69.8 °F 51.8 °F 53% 30.30 in 10.0 mi WSW 4.6 mph - N/A   Clear
9:54 AM 71.6 °F 50.0 °F 46% 30.30 in 10.0 mi WSW 4.6 mph - N/A   Clear
10:15 AM 71.6 °F 48.2 °F 43% 30.30 in 10.0 mi West 5.8 mph - N/A   Clear
10:34 AM 73.4 °F 48.2 °F 41% 30.29 in 10.0 mi WSW 4.6 mph - N/A   Clear
10:54 AM 75.2 °F 46.4 °F 36% 30.30 in 10.0 mi WSW 6.9 mph - N/A   Clear
11:15 AM 75.2 °F 46.4 °F 36% 30.29 in 10.0 mi West 5.8 mph - N/A   Clear
11:34 AM 75.2 °F 46.4 °F 36% 30.29 in 10.0 mi West 6.9 mph - N/A   Clear
11:54 AM 75.2 °F 50.0 °F 41% 30.28 in 10.0 mi WSW 6.9 mph - N/A   Clear
12:14 PM 75.2 °F 46.4 °F 36% 30.28 in 10.0 mi WSW 8.1 mph - N/A   Clear
12:34 PM 75.2 °F 48.2 °F 38% 30.28 in 10.0 mi WSW 5.8 mph - N/A   Clear
12:54 PM 75.2 °F 48.2 °F 38% 30.27 in 10.0 mi SW 8.1 mph - N/A   Clear
1:14 PM 77.0 °F 50.0 °F 39% 30.27 in 10.0 mi South 11.5 mph - N/A   Clear
1:34 PM 75.2 °F 48.2 °F 38% 30.25 in 10.0 mi South 10.4 mph - N/A   Clear
1:54 PM 75.2 °F 51.8 °F 44% 30.24 in 10.0 mi South 13.8 mph - N/A   Clear
2:14 PM 78.8 °F 51.8 °F 39% 30.23 in 10.0 mi South 13.8 mph - N/A   Clear
2:34 PM 77.0 °F 50.0 °F 39% 30.22 in 10.0 mi South 13.8 mph - N/A   Clear
2:54 PM 77.0 °F 51.8 °F 41% 30.22 in 10.0 mi South 13.8 mph - N/A   Clear
3:14 PM 75.2 °F 50.0 °F 41% 30.22 in 10.0 mi South 11.5 mph - N/A   Clear
3:34 PM 75.2 °F 51.8 °F 44% 30.21 in 10.0 mi South 11.5 mph - N/A   Clear
4:14 PM 75.2 °F 51.8 °F 44% 30.19 in 10.0 mi SSE 11.5 mph - N/A   Clear
4:34 PM 75.2 °F 51.8 °F 44% 30.19 in 10.0 mi SSW 11.5 mph - N/A   Clear
4:54 PM 77.0 °F 51.8 °F 41% 30.18 in 10.0 mi South 10.4 mph - N/A   Clear
5:14 PM 78.8 °F 46.4 °F 32% 30.17 in 10.0 mi SW 10.4 mph - N/A   Clear
5:34 PM 78.8 °F 46.4 °F 32% 30.16 in 10.0 mi South 8.1 mph - N/A   Clear
5:54 PM 77.0 °F 53.6 °F 44% 30.15 in 10.0 mi South 11.5 mph - N/A   Clear
6:14 PM 75.2 °F 46.4 °F 36% 30.16 in 10.0 mi SW 8.1 mph - N/A   Clear
6:34 PM 77.0 °F 46.4 °F 34% 30.15 in 10.0 mi SW 8.1 mph - N/A   Clear
6:54 PM 75.2 °F 48.2 °F 38% 30.15 in 10.0 mi SSW 6.9 mph - N/A   Clear
7:14 PM 75.2 °F 46.4 °F 36% 30.15 in 10.0 mi SSW 8.1 mph - N/A   Clear
7:34 PM 75.2 °F 46.4 °F 36% 30.14 in 10.0 mi WSW 5.8 mph - N/A   Clear
7:54 PM 75.2 °F 46.4 °F 36% 30.14 in 10.0 mi WSW 4.6 mph - N/A   Clear
8:14 PM 75.2 °F 48.2 °F 38% 30.14 in 10.0 mi SW 4.6 mph - N/A   Clear
8:34 PM 73.4 °F 50.0 °F 44% 30.13 in 10.0 mi SW 3.5 mph - N/A   Clear
8:54 PM 73.4 °F 50.0 °F 44% 30.13 in 10.0 mi Calm Calm - N/A   Clear
9:14 PM 73.4 °F 50.0 °F 44% 30.12 in 10.0 mi Calm Calm - N/A   Clear
9:34 PM 69.8 °F 53.6 °F 56% 30.12 in 10.0 mi Calm Calm - N/A   Clear
9:54 PM 69.8 °F 51.8 °F 53% 30.11 in 5.0 mi Calm Calm - N/A   Haze
10:14 PM 69.8 °F 53.6 °F 56% 30.12 in 10.0 mi Calm Calm - N/A   Clear
10:34 PM 68.0 °F 53.6 °F 60% 30.11 in 10.0 mi WSW 3.5 mph - N/A   Clear
10:54 PM 69.8 °F 51.8 °F 53% 30.11 in 10.0 mi SW 3.5 mph - N/A   Clear
11:14 PM 69.8 °F 51.8 °F 53% 30.10 in 10.0 mi SW 3.5 mph - N/A   Clear
11:34 PM 68.0 °F 53.6 °F 60% 30.10 in 10.0 mi Calm Calm - N/A   Clear
11:53 PM 69.8 °F 51.8 °F 53% 30.09 in 10.0 mi Calm Calm - N/A   Clear